Regional Weather Roundup
Issued by NWS Newport/Morehead, NC

Current Version | Previous Version | Graphics & Text | Print | Product List | Glossary On
Versions: 1 2 3 4 5 6 7 8 9 10 11 12 13 14 15 16 17 18 19 20 21 22 23 24 25 26 27 28 29 30 31 32 33 34 35 36 37 38 39 40 41 42 43 44 45 46 47 48 49 50
000 ASUS42 KMHX 250426 RWRMHX WEATHER ROUNDUP FOR EASTERN NORTH CAROLINA NATIONAL WEATHER SERVICE NEWPORT/MOREHEAD CITY NC 1200 AM EDT WED APR 25 2018 NOTE: "FAIR" INDICATES FEW OR NO CLOUDS BELOW 12,000 FEET WITH NO SIGNIFICANT WEATHER AND/OR OBSTRUCTIONS TO VISIBILITY NCZ015>017-031-032-045>047-102-103-250500- NORTH COAST CITY SKY/WX TMP DP RH WIND PRES REMARKS EDENTON NOT AVBL ELIZABETH CITY FAIR 63 62 97 SE9 29.85F KITTY HAWK FAIR 59 58 96 MISG 29.84F MANTEO FAIR 61 60 96 SE13G20 29.86F $$ NCZ045>047-081-094-103-104-250500- CENTRAL COAST CITY SKY/WX TMP DP RH WIND PRES REMARKS FRISCO CLOUDY 68 66 93 S7 29.85F FOG $$ NCZ095-097-098-100-101-250500- SOUTHERN COAST CITY SKY/WX TMP DP RH WIND PRES REMARKS BEAUFORT FAIR 65 62 90 SW6 29.83S CEDAR ISLAND NOT AVBL JACKSONVILLE FAIR 62 60 93 S5 29.81F PINEY ISLAND NOT AVBL WILMINGTON FAIR 63 60 90 S9 29.82F $$ NCZ011>013-027>030-043-044-078>080-089-090>093-098-250500- COASTAL PLAIN CITY SKY/WX TMP DP RH WIND PRES REMARKS AHOSKIE CLOUDY 63 63 100 SE3 29.83F CLINTON CLOUDY 62 62 100 CALM 29.81S ELIZABETHTOWN CLOUDY 62 60 96 MISG 29.80F GOLDSBORO NOT AVBL GREENVILLE MOCLDY 64 64 100 SE6 29.83F HAVELOCK NOT AVBL KENANSVILLE FAIR 61 59 94 CALM 29.80F FOG KINSTON MOCLDY 63 63 99 SE6 29.81F NEW BERN FAIR 64 64 100 SE5 29.83S RICHLANDS FAIR 61 59 93 S5 29.82F ROCKY MOUNT CLOUDY 64 62 93 VRB3 29.81F WASHINGTON CLOUDY 65 64 95 CALM 29.81F WHITEVILLE MOCLDY 63 61 92 S7 29.81S $$ AMZ130-135-150-152-154-156-158-170-250-252-270-ANZ085-086-088-633-658-670-250500- MARINE OBSERVATIONS STATION/POSITION TIME TEMP WIND PRES WAVE SWELL AIR SEA DIR/SP/G HT/PER HT/PER (UTC) (F) (DEG/KT/KT) (MB) (FT/S) (FT/S) CHESAPEAKE LIGHT NOT AVBL 64 E VA BEACH 0350 58 49 140/ 17/ 19 1012.6 13/10 10/10 DUCK 0400 58 51 140/ 16/ 20 1010.3 2 E DUCK 0400 51 N/A 8/11 5/11 OREGON INLET 0400 58 54 80/ 8/ 14 1010.7 13E OREGON INLT 0348 53 N/A 12/10 11/10 HATTERAS CG 0400 66 62 160/ 4/ 7 1010.4 DIAMOND BUOY 0410 72 70 170/ 19/ 27 1010.9 CAPE LOOKOUT 0400 240/ 9/ 13 1010.3 BEAUFORT LAB 0400 65 62 220/ 3/ 7 1010.2 30 SE NEW RVR IN 0408 68 66 220/ 10/ 14 1007.6 30 SE NEW RVR IN 0400 67 N/A 10/10 3/11 27 SE WRIGHTSVLE 0408 66 65 230/ 12/ 19 1010.0 5 SE WRIGHTSVLE 0408 64 62 210/ 8/ 14 1009.1 225 S CAPE HAT 0410 72 73 160/ 19/ 25 1013.0 41 SE CHARLESTON 0410 69 240/ 16/ 19 1010.7 $$

USA.gov is the U.S. government's official web portal to all federal, state and local government web resources and services.